Terminal Aerodrome Forecast
Issued by NWS

Home | Current Version | Previous Version | Text Only | Print | Product List | Glossary Off
Versions: 1 2 3 4 5 6 7 8 9 10 11 12 13 14 15 16 17 18 19 20 21 22 23 24 25 26 27 28 29 30 31 32 33 34

771
FTUS45 KGGW 010307 AAA
TAFGDV
TAF AMD
KGDV 010307Z 0103/0124 VRB04KT 4SM -SHSN OVC030
      TEMPO 0103/0106 2SM -SN SCT012 OVC019
     FM010900 23004KT 1SM BR OVC025
     FM011400 21004KT P6SM OVC040=

USA.gov is the U.S. government's official web portal to all federal, state and local government web resources and services.